Time,TemperatureF,DewpointF,PressureIn,WindDirection,WindDirectionDegrees,WindSpeedMPH,WindSpeedGustMPH,Humidity,HourlyPrecipIn,Conditions,Clouds,dailyrainin,SolarRadiationWatts/m^2,SoftwareType,DateUTC
2013-08-08 00:00:00,68.0,64.0,-100.00,North,0,2.0,-999.0,88,-99.99,,,-99.99,0.000000,,2013-08-08 04:00:00,
2013-08-08 00:44:00,68.0,64.0,-100.00,North,0,2.0,-999.0,88,-99.99,,,-99.99,0.000000,,2013-08-08 04:44:00,
2013-08-08 00:53:00,68.0,64.0,-100.00,North,0,2.0,-999.0,88,-99.99,,,-99.99,0.000000,,2013-08-08 04:53:00,
2013-08-08 01:00:00,66.0,62.0,-100.00,NE,45,2.0,-999.0,87,-99.99,,,-99.99,0.000000,,2013-08-08 05:00:00,
2013-08-08 01:43:00,66.0,62.0,-100.00,NE,45,2.0,-999.0,87,-99.99,,,-99.99,0.000000,,2013-08-08 05:43:00,
2013-08-08 01:52:00,66.0,62.0,-100.00,NE,45,2.0,-999.0,87,-99.99,,,-99.99,0.000000,,2013-08-08 05:52:00,
2013-08-08 03:00:00,65.0,61.0,-100.00,NNE,22,3.0,-999.0,87,-99.99,,,-99.99,0.000000,,2013-08-08 07:00:00,
2013-08-08 03:32:00,65.0,61.0,-100.00,NNE,22,3.0,-999.0,87,-99.99,,,-99.99,0.000000,,2013-08-08 07:32:00,
2013-08-08 03:43:00,65.0,61.0,-100.00,NNE,22,3.0,-999.0,87,-99.99,,,-99.99,0.000000,,2013-08-08 07:43:00,
2013-08-08 03:53:00,65.0,61.0,-100.00,NNE,22,3.0,-999.0,87,-99.99,,,-99.99,0.000000,,2013-08-08 07:53:00,
2013-08-08 05:00:00,62.0,59.0,-100.00,NE,45,3.0,-999.0,90,-99.99,,,-99.99,0.000000,,2013-08-08 09:00:00,
2013-08-08 05:43:00,62.0,59.0,-100.00,NE,45,3.0,-999.0,90,-99.99,,,-99.99,0.000000,,2013-08-08 09:43:00,
2013-08-08 05:53:00,62.0,59.0,-100.00,NE,45,3.0,-999.0,90,-99.99,,,-99.99,0.000000,,2013-08-08 09:53:00,
2013-08-08 06:00:00,61.0,58.0,-100.00,NE,45,4.0,-999.0,91,-99.99,,,-99.99,0.000000,,2013-08-08 10:00:00,
2013-08-08 06:43:00,61.0,58.0,-100.00,NE,45,4.0,-999.0,91,-99.99,,,-99.99,0.000000,,2013-08-08 10:43:00,
2013-08-08 06:52:00,61.0,58.0,-100.00,NE,45,4.0,-999.0,91,-99.99,,,-99.99,0.000000,,2013-08-08 10:52:00,
2013-08-08 07:00:00,60.0,57.0,-100.00,NE,45,5.0,-999.0,90,-99.99,,,-99.99,2.320000,,2013-08-08 11:00:00,
2013-08-08 07:43:00,60.0,57.0,-100.00,NE,45,5.0,-999.0,90,-99.99,,,-99.99,2.320000,,2013-08-08 11:43:00,
2013-08-08 07:52:00,60.0,57.0,-100.00,NE,45,5.0,-999.0,90,-99.99,,,-99.99,2.320000,,2013-08-08 11:52:00,
2013-08-08 08:00:00,61.0,57.0,-100.00,NE,45,6.0,-999.0,84,-99.99,,,-99.99,54.520000,,2013-08-08 12:00:00,
2013-08-08 08:43:00,61.0,57.0,-100.00,NE,45,6.0,-999.0,84,-99.99,,,-99.99,54.520000,,2013-08-08 12:43:00,
2013-08-08 08:53:00,61.0,57.0,-100.00,NE,45,6.0,-999.0,84,-99.99,,,-99.99,54.520000,,2013-08-08 12:53:00,
2013-08-08 09:00:00,64.0,56.0,-100.00,ENE,67,6.0,-999.0,76,-99.99,,,-99.99,196.039993,,2013-08-08 13:00:00,
2013-08-08 09:43:00,64.0,56.0,-100.00,ENE,67,6.0,-999.0,76,-99.99,,,-99.99,196.039993,,2013-08-08 13:43:00,
2013-08-08 09:53:00,64.0,56.0,-100.00,ENE,67,6.0,-999.0,76,-99.99,,,-99.99,196.039993,,2013-08-08 13:53:00,
2013-08-08 10:00:00,66.0,56.0,-100.00,NE,45,6.0,-999.0,70,-99.99,,,-99.99,299.279999,,2013-08-08 14:00:00,
2013-08-08 10:43:00,66.0,56.0,-100.00,NE,45,6.0,-999.0,70,-99.99,,,-99.99,299.279999,,2013-08-08 14:43:00,
2013-08-08 10:53:00,66.0,56.0,-100.00,NE,45,6.0,-999.0,70,-99.99,,,-99.99,299.279999,,2013-08-08 14:53:00,
2013-08-08 11:00:00,69.0,56.0,-100.00,ENE,67,8.0,-999.0,62,-99.99,,,-99.99,503.440002,,2013-08-08 15:00:00,
2013-08-08 11:43:00,69.0,56.0,-100.00,ENE,67,8.0,-999.0,62,-99.99,,,-99.99,503.440002,,2013-08-08 15:43:00,
2013-08-08 11:53:00,69.0,56.0,-100.00,ENE,67,8.0,-999.0,62,-99.99,,,-99.99,503.440002,,2013-08-08 15:53:00,
2013-08-08 12:00:00,71.0,56.0,-100.00,ENE,67,8.0,-999.0,58,-99.99,,,-99.99,642.640015,,2013-08-08 16:00:00,
2013-08-08 12:32:00,71.0,56.0,-100.00,ENE,67,8.0,-999.0,58,-99.99,,,-99.99,642.640015,,2013-08-08 16:32:00,
2013-08-08 12:42:00,71.0,56.0,-100.00,ENE,67,8.0,-999.0,58,-99.99,,,-99.99,642.640015,,2013-08-08 16:42:00,
2013-08-08 12:52:00,71.0,56.0,-100.00,ENE,67,8.0,-999.0,58,-99.99,,,-99.99,642.640015,,2013-08-08 16:52:00,
2013-08-08 13:00:00,74.0,56.0,-100.00,ENE,67,6.0,-999.0,54,-99.99,,,-99.99,745.880005,,2013-08-08 17:00:00,
2013-08-08 13:43:00,74.0,56.0,-100.00,ENE,67,6.0,-999.0,54,-99.99,,,-99.99,745.880005,,2013-08-08 17:43:00,
2013-08-08 13:52:00,74.0,56.0,-100.00,ENE,67,6.0,-999.0,54,-99.99,,,-99.99,745.880005,,2013-08-08 17:52:00,
2013-08-08 14:00:00,75.0,57.0,-100.00,NE,45,5.0,-999.0,53,-99.99,,,-99.99,756.320007,,2013-08-08 18:00:00,
2013-08-08 14:43:00,75.0,57.0,-100.00,NE,45,5.0,-999.0,53,-99.99,,,-99.99,756.320007,,2013-08-08 18:43:00,
2013-08-08 14:53:00,75.0,57.0,-100.00,NE,45,5.0,-999.0,53,-99.99,,,-99.99,756.320007,,2013-08-08 18:53:00,
2013-08-08 15:00:00,76.0,57.0,-100.00,NE,45,4.0,-999.0,51,-99.99,,,-99.99,700.640015,,2013-08-08 19:00:00,
2013-08-08 15:43:00,76.0,57.0,-100.00,NE,45,4.0,-999.0,51,-99.99,,,-99.99,700.640015,,2013-08-08 19:43:00,
2013-08-08 15:59:00,76.0,57.0,-100.00,NE,45,4.0,-999.0,51,-99.99,,,-99.99,700.640015,,2013-08-08 19:59:00,
2013-08-08 16:00:00,77.0,58.0,-100.00,NE,45,4.0,-999.0,52,-99.99,,,-99.99,571.880005,,2013-08-08 20:00:00,
2013-08-08 16:42:00,77.0,58.0,-100.00,NE,45,4.0,-999.0,52,-99.99,,,-99.99,571.880005,,2013-08-08 20:42:00,
2013-08-08 16:53:00,77.0,58.0,-100.00,NE,45,4.0,-999.0,52,-99.99,,,-99.99,571.880005,,2013-08-08 20:53:00,
2013-08-08 17:00:00,77.0,58.0,-100.00,NNE,22,4.0,-999.0,52,-99.99,,,-99.99,450.079987,,2013-08-08 21:00:00,
2013-08-08 17:46:00,77.0,58.0,-100.00,NNE,22,4.0,-999.0,52,-99.99,,,-99.99,450.079987,,2013-08-08 21:46:00,
2013-08-08 17:57:00,77.0,58.0,-100.00,NNE,22,4.0,-999.0,52,-99.99,,,-99.99,450.079987,,2013-08-08 21:57:00,
2013-08-08 18:00:00,76.0,58.0,-100.00,North,0,3.0,-999.0,52,-99.99,,,-99.99,335.239990,,2013-08-08 22:00:00,
2013-08-08 18:37:00,76.0,58.0,-100.00,North,0,3.0,-999.0,52,-99.99,,,-99.99,335.239990,,2013-08-08 22:37:00,
2013-08-08 18:49:00,76.0,58.0,-100.00,North,0,3.0,-999.0,52,-99.99,,,-99.99,335.239990,,2013-08-08 22:49:00,
2013-08-08 18:58:00,76.0,58.0,-100.00,North,0,3.0,-999.0,52,-99.99,,,-99.99,335.239990,,2013-08-08 22:58:00,
2013-08-08 19:00:00,76.0,57.0,-100.00,NNE,22,3.0,-999.0,52,-99.99,,,-99.99,270.279999,,2013-08-08 23:00:00,
2013-08-08 19:50:00,76.0,57.0,-100.00,NNE,22,3.0,-999.0,52,-99.99,,,-99.99,270.279999,,2013-08-08 23:50:00,
2013-08-08 19:57:00,76.0,57.0,-100.00,NNE,22,3.0,-999.0,52,-99.99,,,-99.99,270.279999,,2013-08-08 23:57:00,
2013-08-08 20:00:00,75.0,57.0,-100.00,NNE,22,2.0,-999.0,54,-99.99,,,-99.99,139.199997,,2013-08-09 00:00:00,
2013-08-08 20:35:00,75.0,57.0,-100.00,NNE,22,2.0,-999.0,54,-99.99,,,-99.99,139.199997,,2013-08-09 00:35:00,
2013-08-08 20:48:00,75.0,57.0,-100.00,NNE,22,2.0,-999.0,54,-99.99,,,-99.99,139.199997,,2013-08-09 00:48:00,
2013-08-08 20:57:00,75.0,57.0,-100.00,NNE,22,2.0,-999.0,54,-99.99,,,-99.99,139.199997,,2013-08-09 00:57:00,
2013-08-08 21:00:00,69.0,57.0,-100.00,NNE,22,1.0,-999.0,67,-99.99,,,-99.99,19.719999,,2013-08-09 01:00:00,
2013-08-08 21:47:00,69.0,57.0,-100.00,NNE,22,1.0,-999.0,67,-99.99,,,-99.99,19.719999,,2013-08-09 01:47:00,
2013-08-08 22:00:00,65.0,58.0,-100.00,North,0,2.0,-999.0,75,-99.99,,,-99.99,0.000000,,2013-08-09 02:00:00,
2013-08-08 22:47:00,65.0,58.0,-100.00,North,0,2.0,-999.0,75,-99.99,,,-99.99,0.000000,,2013-08-09 02:47:00,
2013-08-08 22:57:00,65.0,58.0,-100.00,North,0,2.0,-999.0,75,-99.99,,,-99.99,0.000000,,2013-08-09 02:57:00,
2013-08-08 23:00:00,64.0,56.0,-100.00,North,0,2.0,-999.0,77,-99.99,,,-99.99,0.000000,,2013-08-09 03:00:00,
2013-08-08 23:47:00,64.0,56.0,-100.00,North,0,2.0,-999.0,77,-99.99,,,-99.99,0.000000,,2013-08-09 03:47:00,
2013-08-08 23:56:00,64.0,56.0,-100.00,North,0,2.0,-999.0,77,-99.99,,,-99.99,0.000000,,2013-08-09 03:56:00,